Location: ??????
(55.2000°N, 38.3000°E)
Time: 01:41:09
(UTC+00:00)

Gbstr 26 Del rocket - Pass Details

Date: 15 November 2025
Orbit: 489 x 1219 km, 51.8° (Epoch: 12 December)

Event Time Altitude Azimuth Distance (km) Brightness Sun altitude
Exits shadow 02:39:43 36° 247° (WSW) 1,167 4.0 -19.6°
Maximum altitude 02:41:42 62° 182° (S) 888 3.8 -19.3°
Drops below altitude 10° 02:47:43 10° 104° (ESE) 2,620 7.5 -18.5°
Sets 02:50:36 0° 101° (E) 3,686 8.7 -18.1°
